M I D A S
Marine Information and Data Acquisition System
Tripno 1046 of the Zeeleeuw from 2006-03-08 07:44:13 to 2006-03-08 13:42:24
Back to CruiseResearch ActivitiesStationsMapUnderway DataData graphs

EquipmentUnitsComments
TimeDGPSUTC
LatitudeDGPSDM.mWGS84
LongitudeDGPSDM.mWGS84
SpeedMeteo Stationm/sRelative wind speed
DirectionMeteo StationdegRelative wind direction
TemperatureMeteo Stationdeg CelciusAir temperature
PressureMeteo StationPaAtmospheric pressure
HumidityMeteo Station%Relative humidity
Missing or incorrect values are displayed as -999
Metereological data collected by the RV Zeeleeuw from 2006-03-08 07:41:22 to 2006-03-08 13:45:06
Time Latitude Longitude Speed Direction Temperature Pressure Humidity
2006-03-08 07:42 51°13.597 2°56.092 -999 84 4.2 100310 100
2006-03-08 07:43 51°13.578 2°56.122 -999 54 4.2 100310 100
2006-03-08 07:44 51°13.533 2°56.19 -999 74 4.2 100310 100
2006-03-08 07:45 51°13.526 2°56.259 -999 145 4.2 100320 100
2006-03-08 07:46 51°13.523 2°56.247 -999 156 4.3 100320 100
2006-03-08 07:47 51°13.527 2°56.256 -999 163 4.3 100320 100
2006-03-08 07:48 51°13.528 2°56.254 -999 246 4.5 100320 100
2006-03-08 07:49 51°13.527 2°56.262 -999 262 4.5 100320 100
2006-03-08 07:50 51°13.548 2°56.191 -999 317 4.4 100310 100
2006-03-08 07:51 51°13.597 2°56.039 -999 299 4.4 100310 100
2006-03-08 07:52 51°13.66 2°55.896 -999 336 4.4 100310 100
2006-03-08 07:53 51°13.728 2°55.758 -999 282 4.4 100310 100
2006-03-08 07:54 51°13.812 2°55.651 -999 257 4.5 100310 100
2006-03-08 07:55 51°13.91 2°55.578 -999 43 4.5 100300 100
2006-03-08 07:56 51°14.019 2°55.501 -999 259 4.5 100310 100
2006-03-08 07:57 51°14.145 2°55.404 -999 328 4.5 100310 100
2006-03-08 07:58 51°14.268 2°55.252 -999 341 4.5 100310 100
2006-03-08 07:59 51°14.39 2°55.01 -999 317 4.6 100280 100
2006-03-08 08:00 51°14.516 2°54.75 -999 307 4.6 100290 100
2006-03-08 08:01 51°14.654 2°54.5 -999 316 4.6 100270 100
2006-03-08 08:02 51°14.776 2°54.228 -999 310 4.5 100260 100
2006-03-08 08:03 51°14.886 2°53.94 -999 310 4.5 100260 100
2006-03-08 08:04 51°14.989 2°53.643 -999 311 4.5 100260 100
2006-03-08 08:05 51°15.098 2°53.347 -999 315 4.5 100270 100
2006-03-08 08:06 51°15.21 2°53.054 -999 306 4.4 100260 100
2006-03-08 08:07 51°15.321 2°52.764 -999 310 4.4 100260 100
2006-03-08 08:08 51°15.405 2°52.455 -999 316 4.3 100260 100
2006-03-08 08:09 51°15.439 2°52.131 -999 322 4.3 100250 100
2006-03-08 08:10 51°15.433 2°51.806 -999 326 4.3 100250 100
2006-03-08 08:11 51°15.416 2°51.48 -999 326 4.3 100240 100
2006-03-08 08:12 51°15.406 2°51.152 -999 325 4.3 100230 100
2006-03-08 08:13 51°15.396 2°50.823 -999 325 4.3 100240 100
2006-03-08 08:14 51°15.386 2°50.494 -999 324 4.3 100230 100
2006-03-08 08:15 51°15.375 2°50.164 -999 326 4.3 100240 100
2006-03-08 08:16 51°15.367 2°49.832 -999 325 4.3 100230 100
2006-03-08 08:17 51°15.372 2°49.5 -999 325 4.3 100240 100
2006-03-08 08:18 51°15.373 2°49.17 -999 326 4.3 100230 100
2006-03-08 08:19 51°15.368 2°48.841 -999 327 4.3 100230 100
2006-03-08 08:20 51°15.364 2°48.513 -999 324 4.4 100230 100
2006-03-08 08:21 51°15.359 2°48.182 -999 322 4.5 100230 100
2006-03-08 08:22 51°15.355 2°47.849 -999 324 4.5 100230 100
2006-03-08 08:23 51°15.353 2°47.516 -999 327 4.5 100230 100
2006-03-08 08:24 51°15.352 2°47.181 -999 328 4.6 100220 100
2006-03-08 08:25 51°15.351 2°46.848 -999 327 4.6 100220 100
2006-03-08 08:26 51°15.349 2°46.517 -999 325 4.6 100230 100
2006-03-08 08:27 51°15.351 2°46.187 -999 324 4.6 100230 100
2006-03-08 08:28 51°15.352 2°45.857 -999 323 4.6 100220 100
2006-03-08 08:29 51°15.36 2°45.524 -999 321 4.6 100220 100
2006-03-08 08:30 51°15.375 2°45.192 -999 322 4.6 100220 100
2006-03-08 08:31 51°15.394 2°44.864 -999 323 4.7 100220 100
2006-03-08 08:32 51°15.411 2°44.538 -999 322 4.6 100220 100
2006-03-08 08:33 51°15.425 2°44.21 -999 321 4.6 100220 100
2006-03-08 08:34 51°15.442 2°43.879 -999 321 4.6 100210 100
2006-03-08 08:35 51°15.46 2°43.548 -999 321 4.6 100210 100
2006-03-08 08:36 51°15.471 2°43.216 -999 323 4.7 100210 100
2006-03-08 08:37 51°15.471 2°42.885 -999 324 4.7 100210 100
2006-03-08 08:38 51°15.472 2°42.553 -999 325 4.7 100200 100
2006-03-08 08:39 51°15.477 2°42.219 -999 321 4.7 100200 100
2006-03-08 08:40 51°15.511 2°41.889 -999 321 4.7 100200 100
2006-03-08 08:41 51°15.532 2°41.556 -999 324 4.7 100190 100
2006-03-08 08:42 51°15.55 2°41.293 -999 314 4.7 100190 100
2006-03-08 08:43 51°15.55 2°41.142 -999 305 4.8 100200 100
2006-03-08 08:44 51°15.553 2°41.036 -999 310 4.7 100190 100
2006-03-08 08:45 51°15.549 2°40.934 -999 317 4.8 100200 100
2006-03-08 08:46 51°15.52 2°40.853 -999 334 4.7 100190 100
2006-03-08 08:47 51°15.477 2°40.793 -999 349 4.8 100190 100
2006-03-08 08:48 51°15.444 2°40.757 -999 328 4.8 100190 100
2006-03-08 08:49 51°15.453 2°40.772 -999 287 4.8 100190 100
2006-03-08 08:50 51°15.467 2°40.798 -999 284 4.8 100190 100
2006-03-08 08:51 51°15.482 2°40.823 -999 282 4.8 100190 100
2006-03-08 08:52 51°15.497 2°40.848 -999 277 4.8 100190 100
2006-03-08 08:53 51°15.512 2°40.873 -999 263 4.8 100190 100
2006-03-08 08:54 51°15.526 2°40.895 -999 258 4.8 100190 100
2006-03-08 08:55 51°15.54 2°40.915 -999 251 4.8 100190 100
2006-03-08 08:56 51°15.554 2°40.932 -999 255 4.8 100200 100
2006-03-08 08:57 51°15.569 2°40.949 -999 250 4.8 100190 100
2006-03-08 08:58 51°15.584 2°40.965 -999 251 4.8 100190 100
2006-03-08 08:59 51°15.629 2°40.898 -999 291 4.8 100190 100
2006-03-08 09:00 51°15.667 2°40.716 -999 317 4.8 100180 100
2006-03-08 09:01 51°15.648 2°40.467 -999 331 4.8 100160 100
2006-03-08 09:02 51°15.624 2°40.141 -999 333 4.9 100150 100
2006-03-08 09:03 51°15.603 2°39.811 -999 332 4.9 100160 100
2006-03-08 09:04 51°15.57 2°39.482 -999 337 4.9 100160 100
2006-03-08 09:05 51°15.54 2°39.152 -999 335 5 100160 100
2006-03-08 09:06 51°15.51 2°38.82 -999 335 5 100160 100
2006-03-08 09:07 51°15.482 2°38.489 -999 336 5 100150 100
2006-03-08 09:08 51°15.457 2°38.157 -999 335 5.1 100140 100
2006-03-08 09:09 51°15.431 2°37.827 -999 332 5.1 100150 100
2006-03-08 09:10 51°15.408 2°37.498 -999 335 5.1 100150 100
2006-03-08 09:11 51°15.385 2°37.168 -999 338 5.1 100140 100
2006-03-08 09:12 51°15.364 2°36.839 -999 336 5.1 100140 100
2006-03-08 09:13 51°15.344 2°36.508 -999 337 5.2 100140 100
2006-03-08 09:14 51°15.326 2°36.176 -999 337 5.2 100140 100
2006-03-08 09:15 51°15.309 2°35.845 -999 345 5.3 100150 100
2006-03-08 09:16 51°15.292 2°35.517 -999 341 5.4 100140 100
2006-03-08 09:17 51°15.272 2°35.191 -999 342 5.5 100130 100
2006-03-08 09:18 51°15.254 2°34.861 -999 342 5.6 100130 100
2006-03-08 09:19 51°15.239 2°34.534 -999 342 5.7 100130 100
2006-03-08 09:20 51°15.22 2°34.243 -999 343 5.7 100130 100
2006-03-08 09:21 51°15.21 2°34.041 -999 334 5.7 100140 100
2006-03-08 09:22 51°15.203 2°33.884 -999 342 5.7 100150 100
2006-03-08 09:23 51°15.17 2°33.701 -999 344 5.7 100140 100
2006-03-08 09:24 51°15.133 2°33.504 -999 346 5.7 100150 100
2006-03-08 09:25 51°15.097 2°33.321 -999 343 5.8 100140 100
2006-03-08 09:26 51°15.072 2°33.185 -999 346 5.8 100150 100
2006-03-08 09:27 51°15.044 2°33.073 -999 357 5.9 100140 100
2006-03-08 09:28 51°14.996 2°33.031 -999 64 6 100140 100
2006-03-08 09:29 51°14.949 2°33.071 -999 55 5.9 100150 100
2006-03-08 09:30 51°14.908 2°33.062 -999 12 6 100160 100
2006-03-08 09:31 51°14.922 2°32.965 -999 284 6 100150 100
2006-03-08 09:32 51°15 2°33 -999 200 6.1 100170 100
2006-03-08 09:33 51°15.019 2°33.052 -999 126 6.3 100160 100
2006-03-08 09:34 51°14.973 2°33.107 -999 41 6.1 100150 100
2006-03-08 09:35 51°14.938 2°33.032 -999 331 6.2 100150 100
2006-03-08 09:36 51°14.948 2°33.001 -999 284 6.2 100140 100
2006-03-08 09:37 51°14.959 2°33.008 -999 266 6.1 100150 100
2006-03-08 09:38 51°14.972 2°33.019 -999 253 6.1 100150 100
2006-03-08 09:39 51°14.985 2°33.03 -999 262 6.1 100150 100
2006-03-08 09:40 51°14.998 2°33.041 -999 270 6.1 100150 100
2006-03-08 09:41 51°15.01 2°33.051 -999 278 6.2 100140 100
2006-03-08 09:42 51°15.023 2°33.062 -999 273 6.2 100140 100
2006-03-08 09:43 51°15.035 2°33.071 -999 276 6.2 100140 100
2006-03-08 09:44 51°15.047 2°33.081 -999 269 6.2 100130 100
2006-03-08 09:45 51°15.061 2°33.089 -999 264 6.1 100140 100
2006-03-08 09:46 51°15.097 2°33.09 -999 236 6.1 100140 100
2006-03-08 09:47 51°15.137 2°33.144 -999 152 6.1 100150 100
2006-03-08 09:48 51°15.111 2°33.232 -999 63 6.1 100150 100
2006-03-08 09:49 51°15.054 2°33.201 -999 356 6 100140 100
2006-03-08 09:50 51°15.019 2°33.117 -999 25 6 100140 100
2006-03-08 09:51 51°14.982 2°33.071 -999 9 6 100130 100
2006-03-08 09:52 51°14.964 2°33.027 -999 5 6 100140 100
2006-03-08 09:53 51°14.958 2°33.007 -999 350 6 100140 100
2006-03-08 09:54 51°14.964 2°33.008 -999 333 5.9 100140 100
2006-03-08 09:55 51°14.972 2°33.015 -999 310 5.9 100150 100
2006-03-08 09:56 51°14.98 2°33.024 -999 292 5.8 100150 100
2006-03-08 09:57 51°14.989 2°33.033 -999 275 5.8 100150 100
2006-03-08 09:58 51°14.998 2°33.042 -999 266 5.7 100150 100
2006-03-08 09:59 51°15.006 2°33.052 -999 260 5.7 100150 100
2006-03-08 10:00 51°15.014 2°33.061 -999 256 5.7 100150 100
2006-03-08 10:01 51°15.023 2°33.07 -999 254 5.7 100160 100
2006-03-08 10:02 51°15.031 2°33.081 -999 265 5.7 100150 100
2006-03-08 10:03 51°15.039 2°33.092 -999 263 5.9 100150 100
2006-03-08 10:04 51°15.048 2°33.104 -999 259 5.9 100150 100
2006-03-08 10:05 51°15.055 2°33.117 -999 265 5.9 100150 100
2006-03-08 10:06 51°15.062 2°33.13 -999 260 6 100140 100
2006-03-08 10:07 51°15.067 2°33.144 -999 263 5.9 100140 100
2006-03-08 10:08 51°15.072 2°33.158 -999 257 5.9 100130 100
2006-03-08 10:09 51°15.076 2°33.173 -999 253 6 100140 100
2006-03-08 10:10 51°15.081 2°33.187 -999 258 6 100130 100
2006-03-08 10:11 51°15.086 2°33.202 -999 254 6.1 100130 100
2006-03-08 10:12 51°15.093 2°33.217 -999 262 6.2 100130 100
2006-03-08 10:13 51°15.114 2°33.216 -999 299 6.2 100130 100
2006-03-08 10:14 51°15.137 2°33.188 -999 321 6.3 100110 100
2006-03-08 10:15 51°15.152 2°33.158 -999 322 6.3 100110 100
2006-03-08 10:16 51°15.165 2°33.141 -999 316 6.4 100100 100
2006-03-08 10:17 51°15.178 2°33.137 -999 308 6.4 100100 100
2006-03-08 10:18 51°15.193 2°33.139 -999 288 6.3 100100 100
2006-03-08 10:19 51°15.244 2°33.136 -999 225 6.3 100100 100
2006-03-08 10:20 51°15.276 2°33.224 -999 128 6.5 100130 100
2006-03-08 10:21 51°15.233 2°33.289 -999 76 6.4 100100 100
2006-03-08 10:22 51°15.167 2°33.338 -999 60 6.4 100090 100
2006-03-08 10:23 51°15.138 2°33.351 -999 52 6.4 100090 100
2006-03-08 10:24 51°15.136 2°33.365 -999 54 6.4 100100 100
2006-03-08 10:25 51°15.15 2°33.384 -999 102 6.4 100100 100
2006-03-08 10:26 51°15.166 2°33.393 -999 118 6.4 100100 100
2006-03-08 10:27 51°15.171 2°33.398 -999 81 6.3 100100 100
2006-03-08 10:28 51°15.165 2°33.409 -999 69 6.4 100090 100
2006-03-08 10:29 51°15.157 2°33.42 -999 53 6.2 100090 100
2006-03-08 10:30 51°15.154 2°33.425 -999 52 6.3 100090 100
2006-03-08 10:31 51°15.15 2°33.43 -999 35 6.2 100100 100
2006-03-08 10:32 51°15.148 2°33.432 -999 25 6.2 100080 100
2006-03-08 10:33 51°15.147 2°33.432 -999 7 6.3 100100 100
2006-03-08 10:34 51°15.148 2°33.431 -999 353 6.3 100090 100
2006-03-08 10:35 51°15.151 2°33.428 -999 340 6.3 100080 100
2006-03-08 10:36 51°15.155 2°33.421 -999 339 6.3 100060 100
2006-03-08 10:37 51°15.158 2°33.416 -999 350 6.2 100060 100
2006-03-08 10:38 51°15.159 2°33.416 -999 11 6.3 100060 100
2006-03-08 10:39 51°15.159 2°33.419 -999 29 6.2 100050 100
2006-03-08 10:40 51°15.156 2°33.423 -999 37 6.2 100050 100
2006-03-08 10:41 51°15.152 2°33.426 -999 33 6.2 100050 100
2006-03-08 10:42 51°15.15 2°33.427 -999 29 6.1 100050 100
2006-03-08 10:43 51°15.151 2°33.429 -999 14 6 100060 100
2006-03-08 10:44 51°15.151 2°33.428 -999 4 6 100060 100
2006-03-08 10:45 51°15.152 2°33.428 -999 357 6.1 100050 100
2006-03-08 10:46 51°15.152 2°33.423 -999 355 6.1 100060 100
2006-03-08 10:47 51°15.153 2°33.42 -999 353 6 100060 100
2006-03-08 10:48 51°15.156 2°33.42 -999 356 6 100060 100
2006-03-08 10:49 51°15.156 2°33.42 -999 8 5.9 100060 100
2006-03-08 10:50 51°15.156 2°33.422 -999 25 5.9 100060 100
2006-03-08 10:51 51°15.155 2°33.422 -999 32 5.9 100060 100
2006-03-08 10:52 51°15.152 2°33.423 -999 31 5.8 100060 100
2006-03-08 10:53 51°15.15 2°33.425 -999 28 5.8 100060 100
2006-03-08 10:54 51°15.149 2°33.427 -999 21 5.8 100050 100
2006-03-08 10:55 51°15.149 2°33.426 -999 8 5.8 100050 100
2006-03-08 10:56 51°15.15 2°33.427 -999 4 5.8 100050 100
2006-03-08 10:57 51°15.15 2°33.426 -999 11 5.8 100050 100
2006-03-08 10:58 51°15.15 2°33.425 -999 4 5.9 100060 100
2006-03-08 10:59 51°15.15 2°33.425 -999 5 5.9 100050 100
2006-03-08 11:00 51°15.151 2°33.425 -999 1 5.9 100050 100
2006-03-08 11:01 51°15.151 2°33.425 -999 360 6 100050 100
2006-03-08 11:02 51°15.152 2°33.424 -999 360 6 100040 100
2006-03-08 11:03 51°15.153 2°33.423 -999 354 6 100040 100
2006-03-08 11:04 51°15.153 2°33.425 -999 4 6.1 100030 100
2006-03-08 11:05 51°15.153 2°33.424 -999 358 6.2 100030 100
2006-03-08 11:06 51°15.153 2°33.421 -999 356 6.2 100020 100
2006-03-08 11:07 51°15.155 2°33.422 -999 354 6.2 100020 100
2006-03-08 11:08 51°15.156 2°33.423 -999 354 6.3 100010 100
2006-03-08 11:09 51°15.155 2°33.422 -999 356 6.3 100000 100
2006-03-08 11:10 51°15.154 2°33.423 -999 1 6.3 100010 100
2006-03-08 11:11 51°15.154 2°33.423 -999 5 6.3 100010 100
2006-03-08 11:12 51°15.154 2°33.422 -999 10 6.3 100010 100
2006-03-08 11:13 51°15.155 2°33.423 -999 22 6.3 100010 100
2006-03-08 11:14 51°15.156 2°33.423 -999 16 6.4 100010 100
2006-03-08 11:15 51°15.156 2°33.421 -999 23 6.4 100010 100
2006-03-08 11:16 51°15.156 2°33.421 -999 26 6.4 100010 100
2006-03-08 11:17 51°15.156 2°33.422 -999 26 6.4 100010 100
2006-03-08 11:18 51°15.155 2°33.423 -999 28 6.3 100020 100
2006-03-08 11:19 51°15.154 2°33.424 -999 33 6.3 100020 100
2006-03-08 11:20 51°15.153 2°33.426 -999 33 6.3 100020 100
2006-03-08 11:21 51°15.153 2°33.426 -999 33 6.3 100010 100
2006-03-08 11:22 51°15.153 2°33.425 -999 27 6.3 100020 100
2006-03-08 11:23 51°15.154 2°33.427 -999 27 6.3 100010 100
2006-03-08 11:24 51°15.154 2°33.425 -999 20 6.3 100000 100
2006-03-08 11:25 51°15.154 2°33.425 -999 17 6.4 100000 100
2006-03-08 11:26 51°15.154 2°33.425 -999 24 6.4 100000 100
2006-03-08 11:27 51°15.155 2°33.426 -999 17 6.4 100010 100
2006-03-08 11:28 51°15.155 2°33.426 -999 21 6.5 100010 100
2006-03-08 11:29 51°15.155 2°33.427 -999 26 6.4 100010 100
2006-03-08 11:30 51°15.154 2°33.427 -999 17 6.5 100020 100
2006-03-08 11:31 51°15.154 2°33.428 -999 20 6.5 100020 100
2006-03-08 11:32 51°15.154 2°33.43 -999 27 6.6 100000 100
2006-03-08 11:33 51°15.153 2°33.429 -999 16 6.6 100020 100
2006-03-08 11:34 51°15.153 2°33.429 -999 10 6.7 100010 100
2006-03-08 11:35 51°15.153 2°33.429 -999 11 6.8 100000 100
2006-03-08 11:36 51°15.153 2°33.428 -999 10 6.8 100010 100
2006-03-08 11:37 51°15.153 2°33.429 -999 19 6.9 100000 100
2006-03-08 11:38 51°15.151 2°33.429 -999 17 6.8 100000 100
2006-03-08 11:39 51°15.15 2°33.43 -999 15 6.7 100000 100
2006-03-08 11:40 51°15.151 2°33.43 -999 4 6.7 100000 100
2006-03-08 11:41 51°15.152 2°33.428 -999 2 6.7 99990 100
2006-03-08 11:42 51°15.154 2°33.427 -999 353 6.7 100000 100
2006-03-08 11:43 51°15.155 2°33.425 -999 359 6.8 100000 100
2006-03-08 11:44 51°15.156 2°33.424 -999 358 6.7 99990 100
2006-03-08 11:45 51°15.156 2°33.424 -999 11 6.8 99980 100
2006-03-08 11:46 51°15.156 2°33.425 -999 18 6.7 99980 100
2006-03-08 11:47 51°15.155 2°33.425 -999 22 6.7 99980 100
2006-03-08 11:48 51°15.149 2°33.423 -999 29 6.7 99970 100
2006-03-08 11:49 51°15.137 2°33.416 -999 25 6.7 99950 100
2006-03-08 11:50 51°15.133 2°33.41 -999 5 6.6 99970 100
2006-03-08 11:51 51°15.135 2°33.399 -999 329 6.6 99970 100
2006-03-08 11:52 51°15.139 2°33.378 -999 326 6.6 99960 100
2006-03-08 11:53 51°15.139 2°33.361 -999 343 6.5 99970 100
2006-03-08 11:54 51°15.145 2°33.355 -999 335 6.5 99970 100
2006-03-08 11:55 51°15.155 2°33.354 -999 228 6.5 99960 100
2006-03-08 11:56 51°15.165 2°33.325 -999 343 6.5 99960 100
2006-03-08 11:57 51°15.114 2°33.281 -999 66 6.5 99950 100
2006-03-08 11:58 51°15.032 2°33.342 -999 65 6.5 99960 100
2006-03-08 11:59 51°14.985 2°33.355 -999 41 6.5 99960 100
2006-03-08 12:00 51°14.945 2°33.31 -999 355 6.5 99960 100
2006-03-08 12:01 51°14.947 2°33.318 -999 308 6.5 99960 100
2006-03-08 12:02 51°14.951 2°33.338 -999 286 6.5 99950 100
2006-03-08 12:03 51°14.963 2°33.338 -999 281 6.4 99960 100
2006-03-08 12:04 51°14.977 2°33.334 -999 281 6.4 99960 100
2006-03-08 12:05 51°14.989 2°33.337 -999 283 6.4 99950 100
2006-03-08 12:06 51°15.001 2°33.34 -999 273 6.4 99950 100
2006-03-08 12:07 51°15.054 2°33.353 -999 202 6.3 99960 100
2006-03-08 12:08 51°15.054 2°33.456 -999 104 6.4 99980 100
2006-03-08 12:09 51°14.995 2°33.486 -999 49 6.4 99940 100
2006-03-08 12:10 51°14.967 2°33.486 -999 32 6.4 99930 100
2006-03-08 12:11 51°14.954 2°33.486 -999 31 6.4 99940 100
2006-03-08 12:12 51°14.943 2°33.474 -999 4 6.4 99940 100
2006-03-08 12:13 51°14.949 2°33.457 -999 40 6.4 99930 100
2006-03-08 12:14 51°14.954 2°33.492 -999 269 6.5 99940 100
2006-03-08 12:15 51°14.976 2°33.494 -999 286 6.5 99950 100
2006-03-08 12:16 51°14.997 2°33.494 -999 281 6.4 99930 100
2006-03-08 12:17 51°15.013 2°33.501 -999 287 6.4 99920 100
2006-03-08 12:18 51°15.028 2°33.513 -999 285 6.4 99920 100
2006-03-08 12:19 51°15.043 2°33.528 -999 274 6.4 99920 100
2006-03-08 12:20 51°15.057 2°33.544 -999 267 6.4 99930 100
2006-03-08 12:21 51°15.069 2°33.561 -999 262 6.4 99920 100
2006-03-08 12:22 51°15.081 2°33.577 -999 258 6.4 99920 100
2006-03-08 12:23 51°15.094 2°33.593 -999 260 6.4 99920 100
2006-03-08 12:24 51°15.106 2°33.607 -999 257 6.3 99930 100
2006-03-08 12:25 51°15.119 2°33.621 -999 263 6.3 99920 100
2006-03-08 12:26 51°15.132 2°33.635 -999 268 6.4 99920 100
2006-03-08 12:27 51°15.142 2°33.647 -999 259 6.4 99910 100
2006-03-08 12:28 51°15.154 2°33.662 -999 261 6.4 99910 100
2006-03-08 12:29 51°15.166 2°33.676 -999 252 6.5 99910 100
2006-03-08 12:30 51°15.177 2°33.688 -999 263 6.5 99910 100
2006-03-08 12:31 51°15.189 2°33.701 -999 257 6.5 99910 100
2006-03-08 12:32 51°15.23 2°33.691 -999 258 6.5 99900 100
2006-03-08 12:33 51°15.31 2°33.73 -999 180 6.5 99920 100
2006-03-08 12:34 51°15.296 2°33.901 -999 119 6.5 99910 100
2006-03-08 12:35 51°15.275 2°34.132 -999 115 6.5 99920 100
2006-03-08 12:36 51°15.237 2°34.231 -999 90 6.5 99900 100
2006-03-08 12:37 51°15.19 2°34.383 -999 125 6.5 99900 100
2006-03-08 12:38 51°15.155 2°34.663 -999 108 6.5 99910 100
2006-03-08 12:39 51°15.106 2°34.988 -999 106 6.5 99900 100
2006-03-08 12:40 51°15.059 2°35.317 -999 107 6.5 99900 100
2006-03-08 12:41 51°15.012 2°35.646 -999 110 6.6 99900 100
2006-03-08 12:42 51°14.97 2°35.97 -999 110 6.6 99900 100
2006-03-08 12:43 51°14.924 2°36.298 -999 110 6.5 99900 100
2006-03-08 12:44 51°14.888 2°36.628 -999 117 6.6 99900 100
2006-03-08 12:45 51°14.849 2°36.955 -999 110 6.6 99900 100
2006-03-08 12:46 51°14.812 2°37.276 -999 120 6.6 99900 100
2006-03-08 12:47 51°14.771 2°37.6 -999 118 6.6 99900 100
2006-03-08 12:48 51°14.734 2°37.925 -999 117 6.6 99890 100
2006-03-08 12:49 51°14.691 2°38.258 -999 110 6.6 99890 100
2006-03-08 12:50 51°14.671 2°38.591 -999 121 6.6 99890 100
2006-03-08 12:51 51°14.652 2°38.919 -999 117 6.6 99890 100
2006-03-08 12:52 51°14.627 2°39.258 -999 136 6.7 99890 100
2006-03-08 12:53 51°14.611 2°39.586 -999 123 6.7 99890 100
2006-03-08 12:54 51°14.592 2°39.91 -999 116 6.7 99880 100
2006-03-08 12:55 51°14.569 2°40.236 -999 133 6.7 99880 100
2006-03-08 12:56 51°14.548 2°40.563 -999 125 6.8 99880 100
2006-03-08 12:57 51°14.52 2°40.889 -999 116 6.8 99870 100
2006-03-08 12:58 51°14.497 2°41.217 -999 118 6.8 99870 100
2006-03-08 12:59 51°14.486 2°41.546 -999 120 6.8 99870 100
2006-03-08 13:00 51°14.483 2°41.878 -999 122 6.9 99870 100
2006-03-08 13:01 51°14.479 2°42.206 -999 122 6.8 99870 100
2006-03-08 13:02 51°14.491 2°42.531 -999 134 6.8 99860 100
2006-03-08 13:03 51°14.502 2°42.854 -999 130 6.8 99860 100
2006-03-08 13:04 51°14.509 2°43.172 -999 128 6.8 99860 100
2006-03-08 13:05 51°14.523 2°43.498 -999 126 6.7 99860 100
2006-03-08 13:06 51°14.523 2°43.825 -999 114 6.7 99850 100
2006-03-08 13:07 51°14.534 2°44.156 -999 120 6.7 99860 100
2006-03-08 13:08 51°14.545 2°44.487 -999 113 6.7 99860 100
2006-03-08 13:09 51°14.556 2°44.814 -999 123 6.6 99860 100
2006-03-08 13:10 51°14.567 2°45.142 -999 119 6.6 99860 100
2006-03-08 13:11 51°14.576 2°45.465 -999 126 6.6 99860 100
2006-03-08 13:12 51°14.591 2°45.786 -999 131 6.6 99860 100
2006-03-08 13:13 51°14.6 2°46.114 -999 115 6.5 99850 100
2006-03-08 13:14 51°14.675 2°46.414 -999 147 6.6 99860 100
2006-03-08 13:15 51°14.768 2°46.708 -999 161 6.6 99860 100
2006-03-08 13:16 51°14.863 2°47 -999 145 6.6 99860 100
2006-03-08 13:17 51°14.949 2°47.298 -999 149 6.6 99850 100
2006-03-08 13:18 51°15.03 2°47.597 -999 142 6.6 99850 100
2006-03-08 13:19 51°15.105 2°47.902 -999 145 6.6 99850 100
2006-03-08 13:20 51°15.157 2°48.226 -999 144 6.6 99840 100
2006-03-08 13:21 51°15.209 2°48.546 -999 134 6.6 99840 100
2006-03-08 13:22 51°15.245 2°48.872 -999 143 6.6 99840 100
2006-03-08 13:23 51°15.267 2°49.205 -999 135 6.7 99830 100
2006-03-08 13:24 51°15.301 2°49.532 -999 43 6.7 99840 100
2006-03-08 13:25 51°15.331 2°49.862 -999 131 6.7 99840 100
2006-03-08 13:26 51°15.365 2°50.192 -999 43 6.7 99830 100
2006-03-08 13:27 51°15.396 2°50.52 -999 131 6.7 99830 100
2006-03-08 13:28 51°15.423 2°50.846 -999 131 6.6 99830 100
2006-03-08 13:29 51°15.451 2°51.167 -999 134 6.7 99820 100
2006-03-08 13:30 51°15.479 2°51.491 -999 139 6.5 99820 100
2006-03-08 13:31 51°15.451 2°51.811 -999 106 6.6 99810 100
2006-03-08 13:32 51°15.372 2°52.121 -999 103 6.6 99800 100
2006-03-08 13:33 51°15.291 2°52.434 -999 97 6.6 99810 100
2006-03-08 13:34 51°15.185 2°52.725 -999 89 6.5 99800 100
2006-03-08 13:35 51°15.084 2°53.017 -999 98 6.5 99800 100
2006-03-08 13:36 51°14.976 2°53.3 -999 84 6.6 99790 100
2006-03-08 13:37 51°14.849 2°53.568 -999 81 6.6 99790 100
2006-03-08 13:38 51°14.734 2°53.843 -999 99 6.7 99790 100
2006-03-08 13:39 51°14.634 2°54.127 -999 94 6.7 99790 100
2006-03-08 13:40 51°14.544 2°54.413 -999 100 6.7 99790 100
2006-03-08 13:41 51°14.472 2°54.713 -999 99 6.8 99800 100
2006-03-08 13:42 51°14.384 2°55.001 -999 100 6.8 99790 100
2006-03-08 13:43 51°14.248 2°55.289 -999 91 7 99790 100
2006-03-08 13:44 51°14.16 2°55.384 -999 89 7.8 99800 100